{"data":{"norad_id":64784,"intl_designator":"2025-148A","name":"DROR 1","alt_names":[],"object_type":"PAYLOAD","status":"ACTIVE","operator":null,"country":"ISRA","launch_date":"2025-07-13","launch_site_code":"AFETR","launch_vehicle":null,"mission":null,"orbit_class":"UNKNOWN","rcs_meters":null,"size_class":null,"mass_kg":null,"dimensions":null,"purposes":["comms"],"wikipedia_slug":null,"has_3d_model":false,"image_url":null,"decayed_at":null,"tle_current":{"epoch":"2026-05-25T03:43:24.877056Z","epoch_age_seconds":71710,"freshness":"FRESH","line1":"1 64784U 25148A   26145.15514904 -.00000036  00000+0  00000+0 0  9994","line2":"2 64784   0.0478  85.0574 0003116 298.1324 271.4065  1.00272215  3063","mean_motion":1.00272215,"eccentricity":0.0003116,"inclination_deg":0.0478,"raan_deg":85.0574,"arg_perigee_deg":298.1324,"mean_anomaly_deg":271.4065,"bstar":0,"rev_number":306,"period_min":1436.0907455769,"perigee_km":35773.335924094,"apogee_km":35799.61290993,"semimajor_km":42164.611417012,"source":"CELESTRAK","updated_at":"2026-05-25T13:38:14.154901Z"}}}